Weather in Montgomery

United States     32°22′09″N   86°15′41″W
temp.,
°C
wind,
m/s
gust,
m/s
humid.,
%
clouds,
%
prec.,
mm/h
press.,
hPa
HPBL,
m
18 may, tue
tue1801:00+20se4146296 0.0 1020578
04:00+20se51360100 0.0 1020631
07:00+19ese41074100 0.0 1022551
10:00+25se685893 0.0 10221217
13:00+27se6747100 0.0 10212134
16:00+28ese6746100 0.0 10191990
19:00+24ese3754100 0.0 1019173
22:00+24ese51256100 0.0 10211009
19 may, wed
wed1901:00+22ese71559100 0.0 1020870
04:00+21se61365100 0.0 1021877
07:00+19e51377100 0.0 1023644
10:00+25ese695978 0.0 10241380
13:00+29se684333 0.0 10222150
16:00+28se88445 0.0 10212177
19:00+25e485799 0.0 1021591
22:00+23ese5136295 0.0 1022697
20 may, thu
thu2001:00+21ese5136617 0.0 1022778
04:00+19e5127649 0.0 1023593
07:00+19e512786 0.0 1025567
10:00+24ese68494 0.0 10251265
13:00+28ese68320 0.0 10242081
16:00+29ese68315 0.0 10222330
19:00+25e49475 0.0 1022439
22:00+21e413595 0.0 1024365
21 may, fri
fri2101:00+21ese514545 0.0 1025568
04:00+17e411715 0.0 1026367
07:00+17e311805 0.0 1028331
10:00+25se574985 0.0 10281276
13:00+30ese573566 0.0 10272082
16:00+31ese453298 0.0 10252449
19:00+27e374747 0.0 1024246
22:00+22e38615 0.0 1026151
22 may, sat
sat2201:00+19e37635 0.0 1026137
04:00+18ese22715 0.0 102631
07:00+19ene237041 0.0 1027120
10:00+26e23475 0.0 1027823
13:00+31ne3435100 0.0 10252199
16:00+32nne3433100 0.0 10222394
19:00+28nnw224660 0.0 102122
22:00+24nne245842 0.0 102281